Location: Go?cza
(50.3372°N, 19.9313°E)
Time: 01:29:32
(UTC+00:00)

Cosmos 839 Rocket - Pass Details

Date: 23 May 2024
Orbit: 964 x 2088 km, 65.9° (Epoch: 18 June)

Event Time Altitude Azimuth Distance (km) Brightness Sun altitude
Rises 01:17:12 0° 320° (NW) 4,340 7.5 -10.7°
Reaches altitude 10° 01:20:16 10° 319° (NW) 3,216 6.8 -10.4°
Maximum altitude 01:27:38 72° 237° (WSW) 1,120 4.2 -9.7°
Drops below altitude 10° 01:33:52 10° 154° (SSE) 2,731 6.1 -9.0°
Sets 01:36:17 0° 152° (SSE) 3,647 6.8 -8.8°
